This demonstration page uses our WeatherBlox Daily Observations layout. Learn more.

Left ArrowRight Arrow

34.74481, -87.66753

Hourly Observations for April 3, 2015

Temp ( °F °C ) Dew Point ( °F °C ) Humidity (%) Winds ( mph kmh ) Pressure ( in mb ) Visibility ( mi km ) Precip ( " mm )
12:53 am 00:53 Mostly Cloudy 72 22.2 57 13.9 59 59 SSW 17 28 29.98 1015 10 16 0.00 0.00
1:53 am 01:53 Partly Cloudy 70 21.1 57 13.9 64 64 SSW 17 28 29.98 1015 10 16 0.00 0.00
2:53 am 02:53 Clear 69 20.6 58 14.4 68 68 S 16 26 29.96 1014 10 16 0.00 0.00
3:53 am 03:53 Mostly Clear 68 20 59 15 73 73 SSW 13 20 29.96 1015 10 16 0.00 0.00
4:08 am 04:08 Mostly Cloudy 68 20 59 15 73 73 SW 13 20 29.94 1014 10 16 0.00 0.00
4:53 am 04:53 Cloudy 69 20.6 60 15.6 73 73 SW 13 20 29.96 1015 10 16 0.00 0.00
5:53 am 05:53 Cloudy 68 20 60 15.6 76 76 SSW 13 20 29.96 1015 10 16 0.00 0.00
6:53 am 06:53 Mostly Cloudy 68 20 60 15.6 76 76 SW 15 24 29.96 1015 10 16 0.00 0.00
7:53 am 07:53 Cloudy 68 20 61 16.1 78 78 SW 14 22 29.98 1015 10 16 0.00 0.00
8:53 am 08:53 Cloudy 70 21.1 61 16.1 73 73 SW 14 22 29.98 1015 10 16 0.00 0.00
9:53 am 09:53 Mostly Cloudy 73 22.8 61 16.1 66 66 SW 21 33 29.96 1015 10 16 0.00 0.00
10:53 am 10:53 Partly Cloudy 74 23.3 61 16.1 64 64 WSW 16 26 29.99 1016 10 16 0.00 0.00
11:53 am 11:53 Cloudy 75 23.9 62 16.7 64 64 SW 9 15 29.98 1015 10 16 0.00 0.00
12:53 pm 12:53 Mostly Cloudy 77 25 62 16.7 60 60 SSW 17 28 29.96 1015 10 16 0.00 0.00
1:53 pm 13:53 Mostly Cloudy 78 25.6 62 16.7 58 58 SSW 15 24 29.93 1014 10 16 0.00 0.00
2:53 pm 14:53 Partly Cloudy 79 26.1 62 16.7 56 56 SW 18 30 29.91 1013 10 16 0.00 0.00
3:53 pm 15:53 Mostly Sunny 81 27.2 61 16.1 51 51 SW 23 37 29.88 1012 10 16 0.00 0.00
4:53 pm 16:53 Mostly Cloudy 81 27.2 62 16.7 53 53 WSW 18 30 29.86 1011 10 16 0.00 0.00
5:53 pm 17:53 Mostly Cloudy 79 26.1 60 15.6 52 52 WSW 17 28 29.87 1012 10 16 0.00 0.00
6:53 pm 18:53 Mostly Cloudy 79 26.1 59 15 50 50 WSW 17 28 29.85 1011 10 16 0.00 0.00
7:02 pm 19:02 Cloudy with Nearby Thunderstorms 79 26.1 59 15 50 50 WSW 17 28 29.85 1011 10 16 0.00 0.00
7:27 pm 19:27 Cloudy with Light Rain 72 22.2 63 17.2 73 73 NW 17 28 29.91 1013 6 10 0.05 1.27
7:34 pm 19:34 Cloudy with Strong Thunderstorms 69 20.6 64 17.8 84 84 NNW 18 30 29.91 1013 3 4 0.13 3.30
7:45 pm 19:45 Cloudy with Nearby Thunderstorms 68 20 64 17.8 87 87 NW 14 22 29.94 1014 3 5 0.22 5.59
7:47 pm 19:47 Cloudy with Nearby Thunderstorms 68 20 64 18 88 88 WNW 16 26 29.94 1014 7 11 0.22 5.59
7:53 pm 19:53 Cloudy with Nearby Thunderstorms 67 19.4 63 17.2 87 87 WNW 14 22 29.97 1015 10 16 0.22 5.59
7:58 pm 19:58 Cloudy 66 18.9 62 16.7 87 87 WNW 13 20 29.97 1015 10 16 0.00 0.03
8:53 pm 20:53 Cloudy 60 15.6 56 13.3 86 86 NNW 15 24 30.04 1017 10 16 0.00 0.03
9:21 pm 21:21 Cloudy 58 14.4 53 11.7 84 84 NNW 16 26 30.06 1018 10 16 0.00 0.00
9:29 pm 21:29 Cloudy 57 13.9 52 11.1 83 83 NNW 17 28 30.06 1018 10 16 0.00 0.00
9:53 pm 21:53 Cloudy 56 13.3 51 10.6 84 84 NNW 14 22 30.08 1019 10 16 0.02 0.51
10:10 pm 22:10 Cloudy 56 13.3 49 9.4 77 77 N 7 11 30.09 1019 10 16 0.00 0.00
10:53 pm 22:53 Cloudy 55 12.8 46 7.8 72 72 N 9 15 30.13 1020 10 16 0.00 0.00
11:53 pm 23:53 Cloudy 54 12.2 43 6.1 67 67 N 7 11 30.16 1021 10 16 0.00 0.00

Powered by AerisWeather